• In Belarus
  • List of Countries
  • For 7 days
  • Water Temperature
  • Satellite Maps
  • Weather Map
  • Weather Widgets
  • user-avatar
    Login

    Hourly Weather Saidpur

    Today, 20 April, Friday

    Time Temperature Precipitation Wind Pressure Humidity
    00:00 +29°C° 0.5 mm 5 mps 751 mmHg 71%
    01:00 +28°C° 0.3 mm 5 mps 751 mmHg 72%
    02:00 +28°C° 0.3 mm 4 mps 750 mmHg 74%
    03:00 +27°C° 0.3 mm 4 mps 750 mmHg 75%
    04:00 +27°C° 0.7 mm 4 mps 750 mmHg 77%
    05:00 +27°C° 0.7 mm 4 mps 750 mmHg 79%
    06:00 +26°C° 0.7 mm 5 mps 751 mmHg 81%
    07:00 +27°C° 0.2 mm 5 mps 751 mmHg 79%
    08:00 +28°C° 0.2 mm 5 mps 751 mmHg 77%
    09:00 +29°C° 0.2 mm 5 mps 752 mmHg 75%
    10:00 +32°C° 0.1 mm 4 mps 752 mmHg 71%
    11:00 +33°C° 0.1 mm 4 mps 752 mmHg 67%
    12:00 +34°C° 0.1 mm 4 mps 752 mmHg 63%
    13:00 +35°C° 0 mm 3 mps 751 mmHg 57%
    14:00 +37°C° 0 mm 3 mps 750 mmHg 52%
    15:00 +38°C° 0 mm 2 mps 749 mmHg 46%
    16:00 +38°C° 0 mm 2 mps 749 mmHg 46%
    17:00 +37°C° 0 mm 2 mps 749 mmHg 47%
    18:00 +37°C° 0 mm 2 mps 748 mmHg 47%
    19:00 +36°C° 0.2 mm 2 mps 749 mmHg 51%
    20:00 +35°C° 0.2 mm 3 mps 749 mmHg 56%
    21:00 +33°C° 0.2 mm 4 mps 750 mmHg 60%
    22:00 +33°C° 0 mm 4 mps 750 mmHg 63%
    23:00 +32°C° 0 mm 4 mps 750 mmHg 67%

    Tomorrow, 21 April, Saturday

    Time Temperature Precipitation Wind Pressure Humidity
    00:00 +30°C° 0 mm 5 mps 750 mmHg 71%
    01:00 +30°C° 0 mm 4 mps 750 mmHg 74%
    02:00 +29°C° 0 mm 4 mps 749 mmHg 77%
    03:00 +29°C° 0 mm 3 mps 749 mmHg 79%
    04:00 +29°C° 0 mm 4 mps 749 mmHg 80%
    05:00 +28°C° 0 mm 4 mps 749 mmHg 81%
    06:00 +28°C° 0 mm 4 mps 749 mmHg 82%
    07:00 +29°C° 0 mm 4 mps 750 mmHg 78%
    08:00 +32°C° 0 mm 5 mps 750 mmHg 74%
    09:00 +33°C° 0 mm 5 mps 751 mmHg 70%
    10:00 +34°C° 0.3 mm 5 mps 751 mmHg 65%
    11:00 +35°C° 0.3 mm 5 mps 751 mmHg 61%
    12:00 +36°C° 0.3 mm 4 mps 750 mmHg 57%
    13:00 +37°C° 0 mm 4 mps 750 mmHg 53%
    14:00 +38°C° 0 mm 4 mps 749 mmHg 49%
    15:00 +39°C° 0 mm 3 mps 748 mmHg 46%
    16:00 +39°C° 0 mm 3 mps 748 mmHg 48%
    17:00 +38°C° 0 mm 3 mps 747 mmHg 50%
    18:00 +38°C° 0 mm 3 mps 747 mmHg 52%
    19:00 +36°C° 0.1 mm 3 mps 748 mmHg 56%
    20:00 +35°C° 0.1 mm 3 mps 748 mmHg 60%
    21:00 +34°C° 0.1 mm 4 mps 749 mmHg 63%
    22:00 +33°C° 0.2 mm 4 mps 749 mmHg 68%
    23:00 +32°C° 0.2 mm 4 mps 749 mmHg 72%

    Day after tomorrow, 22 April, Sunday

    Time Temperature Precipitation Wind Pressure Humidity
    00:00 +30°C° 0.2 mm 4 mps 750 mmHg 76%
    01:00 +30°C° 0.1 mm 4 mps 749 mmHg 78%
    02:00 +29°C° 0.1 mm 4 mps 749 mmHg 80%
    03:00 +29°C° 0.1 mm 3 mps 749 mmHg 82%
    04:00 +29°C° 0.2 mm 3 mps 749 mmHg 83%
    05:00 +29°C° 0.2 mm 3 mps 749 mmHg 85%
    06:00 +28°C° 0.2 mm 3 mps 750 mmHg 86%
    07:00 +30°C° 0.1 mm 3 mps 751 mmHg 81%
    08:00 +32°C° 0.1 mm 4 mps 751 mmHg 75%
    09:00 +34°C° 0.1 mm 4 mps 752 mmHg 70%
    10:00 +35°C° 0.1 mm 4 mps 752 mmHg 65%
    11:00 +36°C° 0.1 mm 4 mps 752 mmHg 61%
    12:00 +37°C° 0.1 mm 4 mps 752 mmHg 56%
    13:00 +38°C° 0.3 mm 3 mps 751 mmHg 53%
    14:00 +38°C° 0.3 mm 3 mps 750 mmHg 50%
    15:00 +39°C° 0.3 mm 3 mps 749 mmHg 47%
    16:00 +38°C° 1.9 mm 3 mps 749 mmHg 50%
    17:00 +37°C° 1.9 mm 4 mps 748 mmHg 53%
    18:00 +36°C° 1.9 mm 4 mps 748 mmHg 57%
    19:00 +34°C° 0.1 mm 5 mps 749 mmHg 62%
    20:00 +33°C° 0.1 mm 5 mps 750 mmHg 67%
    21:00 +32°C° 0.1 mm 5 mps 750 mmHg 72%
    22:00 +30°C° 0 mm 5 mps 751 mmHg 72%
    23:00 +30°C° 0 mm 4 mps 751 mmHg 72%

    23 April, Monday

    Time Temperature Precipitation Wind Pressure Humidity
    00:00 +30°C° 0 mm 4 mps 751 mmHg 71%
    01:00 +29°C° 0.3 mm 3 mps 751 mmHg 74%
    02:00 +29°C° 0.3 mm 3 mps 750 mmHg 77%
    03:00 +28°C° 0.3 mm 3 mps 750 mmHg 79%
    04:00 +28°C° 0.1 mm 3 mps 750 mmHg 80%
    05:00 +28°C° 0.1 mm 3 mps 751 mmHg 82%
    06:00 +27°C° 0.1 mm 3 mps 751 mmHg 83%
    07:00 +29°C° 0.1 mm 3 mps 752 mmHg 80%
    08:00 +30°C° 0.1 mm 4 mps 752 mmHg 77%
    09:00 +32°C° 0.1 mm 4 mps 753 mmHg 74%
    10:00 +33°C° 0 mm 4 mps 753 mmHg 70%
    11:00 +34°C° 0 mm 4 mps 752 mmHg 66%
    12:00 +35°C° 0 mm 3 mps 752 mmHg 62%
    13:00 +36°C° 0 mm 3 mps 751 mmHg 55%
    14:00 +38°C° 0 mm 3 mps 750 mmHg 47%
    15:00 +39°C° 0 mm 2 mps 749 mmHg 40%
    16:00 +39°C° 0 mm 2 mps 749 mmHg 41%
    17:00 +38°C° 0 mm 2 mps 749 mmHg 42%
    18:00 +38°C° 0 mm 2 mps 749 mmHg 43%
    19:00 +36°C° 0 mm 3 mps 749 mmHg 48%
    20:00 +35°C° 0 mm 3 mps 750 mmHg 54%
    21:00 +34°C° 0 mm 3 mps 751 mmHg 59%
    22:00 +33°C° 0 mm 3 mps 750 mmHg 62%
    23:00 +33°C° 0 mm 3 mps 750 mmHg 64%

    24 April, Tuesday

    Time Temperature Precipitation Wind Pressure Humidity
    00:00 +31°C° 0 mm 3 mps 750 mmHg 67%
    01:00 +30°C° 0 mm 3 mps 750 mmHg 71%
    02:00 +30°C° 0 mm 4 mps 750 mmHg 76%
    03:00 +29°C° 0 mm 4 mps 749 mmHg 81%
    04:00 +29°C° 0.1 mm 4 mps 750 mmHg 83%
    05:00 +28°C° 0.1 mm 3 mps 750 mmHg 84%
    06:00 +28°C° 0.1 mm 3 mps 750 mmHg 86%
    07:00 +29°C° 0 mm 3 mps 751 mmHg 78%
    08:00 +31°C° 0 mm 3 mps 752 mmHg 70%
    09:00 +33°C° 0 mm 4 mps 752 mmHg 62%
    10:00 +35°C° 0 mm 3 mps 752 mmHg 54%
    11:00 +37°C° 0 mm 3 mps 752 mmHg 45%
    12:00 +39°C° 0 mm 2 mps 752 mmHg 37%
    13:00 +40°C° 0 mm 2 mps 751 mmHg 30%
    14:00 +41°C° 0 mm 2 mps 750 mmHg 23%
    15:00 +43°C° 0 mm 3 mps 749 mmHg 16%
    16:00 +41°C° 0 mm 2 mps 749 mmHg 18%
    17:00 +40°C° 0 mm 2 mps 748 mmHg 19%
    18:00 +40°C° 0 mm 2 mps 748 mmHg 20%
    19:00 +38°C° 0 mm 2 mps 748 mmHg 26%
    20:00 +36°C° 0 mm 3 mps 749 mmHg 31%
    21:00 +34°C° 0 mm 4 mps 750 mmHg 37%
    22:00 +33°C° 0 mm 4 mps 749 mmHg 42%
    23:00 +32°C° 0 mm 4 mps 749 mmHg 47%

    25 April, Wednesday

    Time Temperature Precipitation Wind Pressure Humidity
    00:00 +30°C° 0 mm 4 mps 749 mmHg 52%
    01:00 +30°C° 0 mm 3 mps 749 mmHg 56%
    02:00 +29°C° 0 mm 3 mps 749 mmHg 59%
    03:00 +29°C° 0 mm 3 mps 748 mmHg 62%
    04:00 +28°C° 0 mm 3 mps 749 mmHg 67%
    05:00 +28°C° 0 mm 3 mps 749 mmHg 71%
    06:00 +27°C° 0 mm 4 mps 750 mmHg 75%
    07:00 +29°C° 0 mm 4 mps 751 mmHg 72%
    08:00 +32°C° 0 mm 5 mps 751 mmHg 68%
    09:00 +33°C° 0 mm 5 mps 752 mmHg 64%
    10:00 +35°C° 0 mm 5 mps 752 mmHg 60%
    11:00 +36°C° 0 mm 5 mps 751 mmHg 55%
    12:00 +37°C° 0 mm 5 mps 751 mmHg 50%
    13:00 +38°C° 0 mm 4 mps 750 mmHg 46%
    14:00 +40°C° 0 mm 4 mps 749 mmHg 42%
    15:00 +40°C° 0 mm 3 mps 748 mmHg 37%
    16:00 +39°C° 0 mm 3 mps 748 mmHg 40%
    17:00 +39°C° 0 mm 3 mps 748 mmHg 42%
    18:00 +38°C° 0 mm 3 mps 747 mmHg 45%
    19:00 +37°C° 0 mm 3 mps 748 mmHg 48%
    20:00 +36°C° 0 mm 4 mps 749 mmHg 52%
    21:00 +35°C° 0 mm 4 mps 749 mmHg 55%
    22:00 +33°C° 0.3 mm 5 mps 750 mmHg 59%
    23:00 +32°C° 0.3 mm 6 mps 750 mmHg 63%
    Show more